Wind_Speed
5 5 5 6 6 4 5 4 2 1 4 7 6 4 7 11 13 14 16 17 18 18 20 20 18 16 15 14 13 12 12 11 10 11 12 13 15 15 14 13 12 14
6 6 4 5 5 6 5 4 3 3 3 7 6 5 9 12 12 13 13 14 16 18 20 19 16 14 14 14 13 11 11 12 12 12 10 12 15 14 15 14 12 13
11 10 8 7 6 6 6 4 3 3 3 5 6 8 12 13 13 14 13 14 16 18 19 18 15 13 12 12 12 10 11 12 12 12 11 11 12 13 15 15 13 12
10 9 8 6 4 3 5 4 3 4 4 5 7 10 11 13 14 14 14 14 16 18 18 16 14 13 12 11 10 11 11 12 11 11 11 11 11 12 14 14 13 11
8 8 7 6 4 4 6 4 2 5 7 6 8 10 10 12 12 12 12 13 14 16 17 15 13 12 11 10 11 12 12 11 11 10 10 11 12 11 12 13 13 11
6 7 7 6 5 6 5 3 4 8 8 8 9 10 10 10 10 9 10 12 13 14 14 13 12 11 11 10 11 12 12 12 11 10 10 12 11 11 11 14 14 12
7 6 6 6 6 6 4 4 7 9 9 11 10 9 9 9 8 9 10 11 13 13 13 12 11 10 10 10 10 11 11 12 12 11 11 12 11 11 11 14 15 13
10 8 7 7 7 7 5 5 7 9 10 11 10 8 8 8 8 9 10 12 12 13 12 11 10 10 10 10 10 10 10 11 11 12 12 13 12 12 12 14 15 14
11 9 9 8 8 8 8 7 8 9 10 10 9 7 7 7 7 9 11 12 12 12 11 10 9 9 10 10 10 10 10 10 11 12 12 13 13 13 14 15 15 14
11 11 10 8 8 9 10 9 9 9 10 9 8 7 6 6 7 10 11 12 11 12 11 8 7 7 9 10 10 10 11 11 11 12 12 13 14 13 14 16 15 14
12 12 10 9 10 11 12 11 11 10 9 7 7 6 5 5 7 10 11 11 10 9 8 7 6 6 6 8 9 10 11 11 12 12 12 13 14 13 13 15 15 14
13 12 10 10 13 14 13 14 13 10 9 7 6 6 5 5 6 7 6 7 8 8 6 5 6 7 7 7 7 8 10 11 12 12 12 12 13 12 13 14 14 15
12 11 12 13 15 16 15 14 13 11 9 7 5 5 5 5 7 6 5 6 8 8 6 6 6 7 8 8 8 9 10 11 11 11 12 12 12 12 13 14 13 14
11 12 14 15 17 17 15 13 12 11 9 6 5 5 5 6 8 8 6 7 9 7 6 6 6 7 8 8 8 9 10 10 11 11 11 11 12 13 13 12 13 14
12 15 16 16 18 18 15 12 12 11 8 5 5 5 5 7 7 7 7 8 9 7 6 6 7 8 8 8 8 9 10 10 10 10 10 11 12 13 12 11 13 14
16 17 17 16 18 17 14 12 12 10 7 6 6 5 5 6 6 6 7 8 9 8 6 6 7 7 8 8 8 9 10 10 10 10 10 10 11 12 12 12 13 14
18 17 16 15 14 13 12 12 11 10 8 6 6 5 5 6 6 5 6 8 9 7 6 6 7 7 8 8 9 9 10 10 10 10 9 9 11 12 13 13 13 15
18 19 18 15 12 12 13 12 11 10 8 7 6 5 6 6 6 5 6 8 9 6 6 6 7 7 8 8 8 9 10 10 10 10 9 9 11 13 14 14 14 16
22 22 20 16 13 14 13 12 11 10 8 7 6 5 6 6 6 5 6 8 8 6 5 6 7 7 7 8 8 9 9 10 10 9 9 10 12 13 15 16 15 15
24 23 19 15 15 15 13 12 11 10 8 7 6 6 7 6 5 6 7 8 8 6 6 6 6 7 7 7 8 9 9 10 10 9 10 12 12 14 16 17 15 15
23 20 18 16 16 14 13 13 11 9 8 7 6 7 7 6 6 6 6 7 7 7 6 6 7 7 7 8 8 8 9 10 10 10 11 13 12 14 15 16 14 14
22 20 18 17 15 14 14 13 11 9 8 7 7 7 7 7 6 7 7 6 6 7 6 6 7 7 7 8 8 8 9 10 10 10 9 9 12 13 14 14 13 14
22 21 19 17 15 15 15 12 11 9 8 7 7 8 7 7 6 7 7 6 6 7 6 6 6 7 7 7 8 8 8 9 9 8 5 8 11 10 11 13 13 15
22 21 19 16 16 16 14 12 11 10 8 7 8 8 7 7 7 8 7 6 6 8 8 6 5 6 7 7 7 7 8 8 8 7 5 7 8 6 8 11 13 16
23 22 19 17 17 15 13 11 11 9 8 8 8 8 7 8 8 9 8 6 6 8 9 7 6 6 7 7 6 7 7 7 7 7 6 7 7 5 5 9 13 17
24 22 19 18 17 14 12 12 11 9 8 8 8 8 8 9 9 9 9 7 6 7 9 9 6 6 7 7 6 7 7 7 7 8 7 8 8 6 5 7 12 16
Wind_Direction
124 145 180 169 157 157 148 158 156 52 317 307 324 343 340 343 347 349 353 356 359 359 358 359 4 7 11 16 21 23 25 35 36 25 24 24 31 35 27 28 23 16
159 162 184 179 173 191 199 196 191 191 278 299 312 332 336 342 347 351 355 354 354 356 357 360 5 10 13 15 19 23 26 33 39 36 26 17 23 28 24 29 28 11
179 184 187 200 205 207 221 241 242 238 277 306 319 333 338 342 345 350 355 353 350 354 358 1 7 13 16 16 16 25 33 35 34 32 27 20 18 19 19 25 29 13
196 201 196 218 237 216 229 248 275 283 285 300 318 330 334 339 345 351 353 351 351 354 358 3 7 12 17 19 21 28 36 39 37 27 19 22 23 17 14 19 27 13
207 208 199 219 243 229 233 241 249 261 269 289 309 323 333 341 347 351 351 350 352 352 355 1 7 12 15 20 27 34 38 40 40 31 17 23 30 19 7 12 24 14
218 210 192 195 225 232 229 222 231 247 271 300 308 319 335 342 345 350 349 348 350 351 352 358 6 14 17 22 28 31 36 39 40 35 24 26 29 22 8 6 16 16
219 217 198 187 213 236 219 200 233 255 282 301 305 318 333 337 344 348 345 345 348 350 352 356 6 16 19 26 31 28 29 32 33 31 28 28 25 21 12 3 10 15
218 218 213 201 208 228 231 239 263 277 287 293 302 319 327 334 345 344 342 346 349 351 351 354 5 17 21 26 31 30 30 28 24 24 23 23 21 17 9 3 9 11
221 221 224 217 208 218 238 268 286 287 286 292 304 318 324 333 342 339 341 349 351 349 350 354 4 12 16 23 28 30 33 29 22 22 20 17 16 13 4 3 9 7
223 230 231 215 210 229 250 266 275 281 286 294 306 317 323 331 335 337 343 352 351 346 346 353 5 10 10 12 17 24 28 26 21 21 18 12 11 10 1 2 8 2
225 235 228 206 219 247 260 261 262 271 284 293 305 316 321 329 336 339 345 351 348 339 336 343 356 7 8 4 6 14 18 18 18 17 15 10 8 8 359 360 4 357
229 235 220 210 234 251 257 257 256 261 276 290 304 311 316 330 338 339 337 334 329 326 323 330 348 360 5 2 359 6 12 12 12 12 10 8 7 6 357 358 0 352
233 232 213 218 243 254 257 256 251 252 266 285 301 303 309 324 333 336 328 314 317 323 328 340 356 358 360 3 0 6 11 7 6 8 7 6 6 3 358 357 354 347
234 230 218 225 245 256 259 253 243 248 261 278 292 294 306 323 333 338 333 320 319 326 339 351 359 357 356 1 0 5 9 4 2 4 4 6 5 0 0 357 347 343
230 228 223 232 246 254 255 246 240 247 253 266 281 288 305 320 330 333 328 320 320 330 348 351 354 354 353 356 359 4 6 2 0 1 2 6 1 358 1 354 341 341
231 230 229 239 248 249 248 243 240 241 242 256 273 283 303 316 324 326 319 314 317 330 345 346 349 350 348 353 359 2 3 1 358 359 4 5 358 358 359 347 340 346
227 223 227 241 247 244 243 242 234 232 239 253 267 282 303 315 318 315 308 306 313 326 336 338 345 345 346 353 356 358 1 359 356 356 2 6 360 357 354 345 343 351
213 211 224 239 244 241 241 235 225 225 238 250 262 282 303 310 308 307 302 300 308 321 328 335 340 339 345 351 351 356 358 354 355 354 356 9 6 355 348 344 344 350
211 221 235 243 242 239 233 223 219 225 236 246 259 283 300 303 300 302 298 296 305 318 325 330 332 335 343 346 348 355 354 353 355 345 346 7 5 348 342 342 343 342
221 231 238 238 234 231 222 214 218 224 233 244 260 283 298 299 296 296 292 292 302 315 325 326 324 332 339 341 348 352 350 355 351 337 349 8 358 338 334 338 337 328
227 230 231 230 227 220 211 212 217 223 232 245 263 284 295 295 290 289 286 286 297 312 322 319 318 331 336 338 347 348 349 355 344 337 360 5 341 323 323 329 328 316
226 226 226 224 218 209 208 213 217 223 233 246 265 282 290 287 282 281 279 279 291 306 315 310 314 328 332 335 343 345 349 351 343 350 6 342 315 313 319 323 320 311
224 225 223 217 209 205 209 214 216 223 235 250 268 280 285 283 276 273 273 273 283 297 304 302 310 322 326 332 339 342 348 347 346 360 355 308 305 315 320 319 316 311
222 225 220 211 206 206 211 213 215 226 240 252 267 279 281 276 270 267 268 268 276 289 297 302 311 316 321 329 333 336 345 346 344 352 337 316 321 329 322 317 312 310
221 221 213 205 206 208 210 212 217 229 241 251 264 276 274 266 262 263 264 264 269 280 290 301 309 310 315 325 330 331 338 341 341 346 346 338 338 344 338 319 308 310
217 215 207 204 208 209 208 212 221 231 241 252 261 267 265 258 255 258 260 262 266 272 282 293 299 302 310 317 324 327 330 334 338 343 347 344 342 347 345 313 304 311
Height
1555 1556 1556 1556 1557 1557 1557 1557 1557 1557 1556 1555 1555 1554 1553 1552 1551 1550 1549 1548 1547 1546 1544 1543 1541 1540 1539 1538 1537 1536 1535 1534 1533 1532 1531 1530 1529 1528 1527 1526 1525 1524
1555 1556 1556 1556 1556 1557 1556 1556 1556 1556 1556 1555 1554 1554 1553 1552 1551 1550 1549 1548 1547 1546 1544 1543 1541 1540 1539 1538 1537 1536 1535 1534 1533 1532 1531 1530 1529 1528 1527 1526 1525 1524
1554 1555 1555 1556 1556 1556 1556 1556 1556 1555 1555 1554 1553 1553 1552 1551 1551 1550 1549 1548 1547 1545 1544 1543 1541 1540 1539 1538 1537 1536 1535 1534 1533 1532 1531 1530 1529 1528 1527 1526 1525 1525
1554 1554 1554 1555 1555 1555 1555 1555 1555 1555 1554 1553 1552 1552 1551 1551 1550 1549 1548 1547 1546 1545 1543 1542 1541 1540 1539 1538 1537 1536 1535 1534 1533 1532 1531 1530 1529 1528 1527 1526 1525 1525
1553 1553 1554 1554 1554 1554 1555 1554 1555 1554 1553 1553 1552 1551 1551 1550 1549 1548 1548 1547 1545 1544 1543 1542 1541 1540 1539 1538 1537 1536 1534 1534 1533 1532 1531 1530 1529 1528 1527 1526 1525 1524
1553 1553 1553 1554 1554 1554 1554 1554 1554 1553 1552 1552 1551 1551 1550 1549 1549 1548 1547 1546 1545 1544 1543 1542 1541 1540 1539 1538 1536 1535 1534 1533 1533 1532 1531 1530 1529 1528 1527 1526 1525 1524
1552 1552 1552 1553 1554 1553 1553 1553 1553 1552 1551 1551 1551 1550 1550 1549 1548 1548 1547 1546 1545 1544 1542 1541 1541 1539 1538 1537 1536 1535 1534 1533 1532 1531 1531 1530 1529 1528 1527 1526 1524 1523
1551 1551 1552 1552 1553 1552 1552 1552 1552 1551 1551 1550 1550 1550 1549 1548 1548 1547 1546 1545 1544 1543 1542 1541 1540 1539 1538 1537 1536 1535 1534 1533 1532 1531 1530 1529 1528 1528 1527 1525 1524 1523
1551 1551 1551 1552 1552 1552 1551 1550 1550 1550 1550 1550 1549 1549 1548 1548 1547 1547 1546 1544 1543 1543 1542 1541 1540 1538 1537 1536 1535 1534 1533 1532 1532 1531 1530 1529 1528 1527 1526 1525 1524 1523
1550 1550 1550 1551 1551 1550 1550 1550 1550 1549 1549 1549 1548 1548 1548 1547 1546 1546 1545 1544 1543 1542 1541 1540 1539 1538 1537 1536 1535 1534 1533 1532 1531 1530 1530 1529 1528 1527 1526 1525 1524 1523
1549 1549 1549 1549 1549 1549 1548 1548 1548 1548 1548 1548 1548 1547 1547 1546 1546 1545 1544 1543 1542 1542 1541 1540 1539 1538 1537 1536 1535 1533 1532 1532 1531 1530 1529 1529 1528 1527 1526 1525 1524 1523
1548 1548 1548 1548 1547 1547 1547 1547 1547 1547 1547 1547 1547 1547 1546 1546 1545 1544 1543 1542 1542 1541 1540 1539 1538 1537 1536 1535 1534 1533 1532 1531 1530 1530 1529 1528 1528 1527 1526 1525 1524 1522
1546 1547 1547 1546 1546 1545 1545 1546 1545 1546 1546 1546 1546 1546 1545 1545 1544 1544 1543 1542 1541 1541 1540 1539 1537 1537 1536 1535 1534 1533 1532 1531 1530 1529 1528 1528 1527 1526 1525 1524 1523 1522
1545 1545 1545 1544 1544 1544 1544 1544 1544 1545 1545 1545 1545 1544 1544 1544 1543 1542 1542 1541 1541 1540 1539 1538 1537 1536 1535 1534 1533 1532 1531 1531 1530 1529 1528 1527 1527 1526 1525 1524 1523 1522
1544 1543 1543 1543 1543 1542 1543 1543 1543 1544 1544 1544 1544 1543 1543 1542 1542 1541 1540 1540 1540 1539 1538 1537 1536 1535 1535 1534 1533 1532 1531 1530 1529 1529 1527 1527 1526 1525 1524 1524 1522 1521
1542 1541 1542 1541 1541 1540 1541 1541 1542 1543 1543 1543 1543 1542 1542 1541 1541 1540 1539 1539 1539 1538 1537 1536 1535 1535 1534 1533 1532 1531 1531 1530 1529 1528 1527 1526 1525 1524 1524 1523 1522 1520
1539 1540 1540 1539 1538 1539 1539 1540 1541 1541 1541 1542 1542 1541 1541 1540 1540 1539 1539 1538 1538 1537 1537 1536 1535 1534 1533 1532 1532 1531 1530 1529 1528 1528 1526 1526 1525 1524 1523 1522 1521 1520
1538 1538 1537 1536 1536 1537 1538 1539 1539 1540 1540 1540 1540 1540 1540 1539 1539 1538 1538 1537 1537 1537 1536 1535 1534 1534 1533 1532 1531 1530 1530 1529 1528 1527 1526 1525 1524 1523 1522 1521 1520 1519
1536 1536 1535 1535 1535 1536 1537 1537 1538 1538 1539 1539 1539 1539 1539 1538 1538 1537 1537 1536 1536 1536 1535 1535 1534 1533 1532 1531 1530 1530 1529 1528 1527 1527 1525 1524 1523 1523 1522 1520 1519 1518
1533 1533 1533 1534 1534 1535 1535 1536 1537 1537 1538 1538 1538 1538 1537 1537 1536 1536 1536 1535 1534 1534 1534 1534 1533 1533 1532 1531 1530 1529 1529 1527 1527 1526 1524 1523 1522 1522 1521 1520 1519 1518
1531 1531 1532 1532 1532 1533 1534 1535 1536 1536 1536 1537 1536 1536 1536 1535 1535 1535 1535 1534 1533 1533 1533 1533 1533 1532 1531 1530 1529 1529 1528 1527 1526 1525 1523 1522 1522 1522 1521 1519 1519 1517
1529 1529 1530 1530 1531 1532 1533 1533 1534 1535 1535 1535 1535 1535 1535 1534 1534 1534 1533 1533 1532 1532 1532 1532 1532 1531 1530 1530 1529 1528 1527 1526 1525 1524 1523 1523 1523 1522 1520 1519 1518 1517
1527 1527 1527 1528 1529 1530 1531 1532 1533 1533 1534 1534 1534 1533 1533 1533 1533 1533 1532 1532 1531 1531 1531 1531 1531 1530 1530 1529 1528 1527 1526 1525 1525 1523 1522 1523 1522 1521 1520 1519 1518 1517
1525 1525 1526 1526 1527 1528 1529 1530 1531 1532 1532 1532 1532 1532 1531 1531 1531 1531 1531 1530 1530 1530 1530 1530 1530 1529 1529 1528 1528 1527 1526 1525 1524 1523 1522 1521 1521 1520 1520 1518 1517 1516
1523 1523 1524 1525 1525 1526 1528 1529 1530 1530 1531 1531 1531 1530 1530 1530 1530 1530 1530 1529 1529 1529 1529 1529 1529 1528 1528 1527 1527 1526 1525 1524 1523 1522 1521 1521 1520 1519 1519 1518 1516 1515
1521 1522 1522 1523 1524 1525 1526 1527 1528 1529 1529 1529 1529 1529 1529 1529 1529 1528 1528 1528 1528 1528 1528 1528 1528 1527 1527 1526 1526 1525 1525 1524 1523 1522 1520 1520 1519 1518 1518 1517 1516 1513